TimeAST,TemperatureF,Dew PointF,Humidity,Sea Level PressureIn,VisibilityMPH,Wind Direction,Wind SpeedMPH,Gust SpeedMPH,PrecipitationIn,Events,Conditions,WindDirDegrees,DateUTC
12:53 AM,82.9,73.0,72,29.86,10.0,South,8.1,-,N/A,,Scattered Clouds,180,2012-10-07 04:53:00
1:53 AM,82.0,75.0,79,29.85,10.0,South,9.2,-,0.00,,Clear,170,2012-10-07 05:53:00
2:53 AM,82.9,73.0,72,29.83,10.0,South,9.2,-,N/A,,Mostly Cloudy,170,2012-10-07 06:53:00
3:53 AM,82.9,73.9,74,29.84,10.0,South,6.9,-,N/A,,Scattered Clouds,170,2012-10-07 07:53:00
4:53 AM,82.0,73.9,76,29.85,10.0,South,6.9,-,N/A,,Clear,180,2012-10-07 08:53:00
5:53 AM,82.0,73.9,76,29.86,10.0,SSE,5.8,-,N/A,,Scattered Clouds,150,2012-10-07 09:53:00
6:53 AM,82.9,73.0,72,29.88,10.0,SSE,5.8,-,N/A,,Clear,160,2012-10-07 10:53:00
7:53 AM,84.0,73.0,69,29.91,10.0,South,6.9,-,N/A,,Clear,180,2012-10-07 11:53:00
8:53 AM,84.9,73.9,69,29.93,10.0,SSE,6.9,-,N/A,,Partly Cloudy,160,2012-10-07 12:53:00
9:53 AM,87.1,73.9,65,29.94,10.0,SSE,9.2,-,N/A,,Scattered Clouds,160,2012-10-07 13:53:00
10:53 AM,87.1,73.0,63,29.95,10.0,SE,9.2,-,N/A,,Partly Cloudy,140,2012-10-07 14:53:00
11:53 AM,87.1,73.9,65,29.93,10.0,SSE,8.1,-,N/A,,Clear,160,2012-10-07 15:53:00
12:53 PM,87.1,75.0,67,29.93,10.0,South,6.9,-,N/A,,Clear,180,2012-10-07 16:53:00
1:53 PM,88.0,73.0,61,29.91,10.0,SSE,6.9,-,N/A,,Clear,150,2012-10-07 17:53:00
2:53 PM,87.1,75.0,67,29.89,10.0,SSE,8.1,-,N/A,,Clear,160,2012-10-07 18:53:00
3:53 PM,84.9,75.0,72,29.89,10.0,SE,9.2,-,N/A,,Clear,140,2012-10-07 19:53:00
4:53 PM,84.9,75.0,72,29.90,10.0,SSE,9.2,-,N/A,,Clear,150,2012-10-07 20:53:00
5:53 PM,84.0,75.0,74,29.91,10.0,SE,10.4,-,N/A,,Clear,140,2012-10-07 21:53:00
6:53 PM,82.9,75.0,77,29.93,10.0,ESE,9.2,-,N/A,,Clear,110,2012-10-07 22:53:00
7:53 PM,82.9,75.0,77,29.96,10.0,East,6.9,-,N/A,,Scattered Clouds,90,2012-10-07 23:53:00
8:53 PM,82.0,75.0,79,29.96,10.0,East,8.1,-,N/A,,Clear,90,2012-10-08 00:53:00
9:53 PM,82.0,75.0,79,29.97,10.0,East,6.9,-,N/A,,Clear,80,2012-10-08 01:53:00
10:53 PM,82.0,75.0,79,29.98,10.0,East,8.1,-,N/A,,Clear,100,2012-10-08 02:53:00
11:53 PM,82.0,75.0,79,29.98,10.0,East,6.9,-,N/A,,Clear,100,2012-10-08 03:53:00